Vertical_Velocity
-4 -4 -4 -4 -4 -4 -4 -5 -5 -5 -4 -4 -5 -5 -5 -4 -6 -6 -5 -4 -5 -6 -5 -4 -4 -4 -5 -4 -4 -5 -6 -4 -4 -4 -4 -4 -5 -5 -5 -6 -6 -6 -6 -7 -6 -6 -6 -7 -8 -8 -9 -8 -6 -5 -5 -4 -4 -5 -7 -6 -6 -7 -7 -4 -4 -4 -4 -3 -6
-4 -5 -5 -5 -6 -5 -5 -5 -5 -5 -5 -5 -4 -5 -6 -5 -6 -6 -5 -4 -5 -5 -5 -6 -4 -4 -5 -6 -5 -5 -6 -6 -5 -5 -5 -4 -5 -5 -5 -6 -6 -6 -6 -6 -7 -7 -7 -8 -8 -9 -9 -8 -6 -4 -4 -6 -4 -4 -6 -8 -8 -8 -8 -6 -6 -6 -5 -5 -6
-4 -5 -5 -6 -6 -6 -6 -6 -5 -4 -5 -5 -4 -4 -5 -6 -6 -6 -6 -5 -5 -5 -5 -6 -6 -5 -4 -6 -6 -5 -5 -7 -6 -6 -6 -5 -5 -5 -6 -6 -6 -6 -6 -6 -7 -7 -8 -8 -9 -9 -8 -8 -6 -4 -4 -6 -5 -4 -5 -8 -9 -9 -8 -8 -9 -8 -8 -7 -8
-5 -5 -5 -6 -5 -5 -5 -5 -5 -4 -4 -4 -4 -4 -4 -5 -6 -6 -5 -5 -5 -5 -5 -6 -6 -6 -5 -5 -6 -6 -5 -6 -6 -7 -6 -6 -5 -5 -5 -6 -5 -6 -6 -6 -6 -6 -8 -8 -8 -8 -8 -7 -6 -5 -4 -5 -6 -5 -5 -7 -8 -8 -8 -10 -10 -10 -9 -9 -10
-4 -5 -5 -5 -5 -5 -4 -4 -4 -4 -4 -3 -3 -4 -4 -4 -5 -6 -6 -5 -5 -5 -5 -6 -6 -6 -6 -5 -6 -6 -6 -6 -6 -6 -6 -6 -5 -5 -5 -5 -4 -5 -5 -5 -5 -5 -7 -8 -8 -8 -7 -7 -6 -6 -6 -6 -6 -6 -7 -8 -7 -7 -8 -8 -9 -10 -10 -8 -9
-4 -4 -4 -4 -4 -5 -4 -4 -4 -4 -4 -3 -3 -4 -4 -4 -5 -5 -6 -6 -6 -5 -5 -5 -6 -6 -6 -5 -5 -5 -5 -6 -6 -5 -6 -7 -6 -5 -4 -4 -4 -4 -3 -4 -4 -5 -6 -7 -8 -9 -8 -6 -6 -7 -8 -6 -6 -7 -8 -7 -6 -7 -6 -4 -7 -9 -8 -4 -7
-3 -3 -3 -4 -3 -4 -4 -4 -4 -4 -3 -3 -3 -4 -4 -4 -4 -5 -5 -5 -5 -5 -5 -4 -5 -5 -6 -5 -5 -4 -4 -5 -5 -5 -5 -5 -6 -5 -3 -3 -4 -3 -3 -3 -4 -6 -7 -8 -8 -9 -10 -9 -6 -7 -8 -8 -6 -7 -7 -6 -7 -6 -4 -0 -4 -6 -6 -1 -5
-3 -3 -3 -3 -3 -4 -4 -3 -3 -3 -3 -3 -3 -4 -5 -5 -5 -5 -6 -5 -5 -5 -5 -5 -4 -5 -5 -5 -5 -5 -5 -5 -6 -6 -5 -4 -5 -5 -4 -3 -3 -3 -3 -4 -4 -6 -8 -9 -7 -8 -8 -9 -8 -7 -7 -7 -5 -5 -6 -6 -5 -5 -4 -0 -1 -3 -4 -4 -4
-3 -3 -3 -3 -3 -3 -4 -4 -3 -3 -3 -3 -2 -3 -4 -5 -5 -5 -6 -6 -5 -4 -4 -4 -5 -5 -5 -4 -5 -6 -6 -6 -6 -7 -6 -5 -4 -4 -4 -4 -2 -3 -4 -4 -4 -5 -7 -9 -7 -7 -7 -7 -6 -6 -7 -7 -3 -3 -5 -8 -5 -4 -3 -5 -3 -2 -2 -6 -6
-3 -3 -3 -4 -4 -3 -3 -4 -3 -3 -2 -3 -3 -3 -3 -4 -5 -5 -5 -5 -5 -5 -4 -4 -5 -6 -6 -5 -6 -6 -7 -6 -6 -6 -6 -5 -4 -3 -3 -4 -3 -3 -3 -4 -4 -4 -6 -7 -6 -6 -5 -6 -4 -4 -4 -6 -4 -3 -4 -8 -8 -5 -2 -5 -7 -4 -2 -4 -7
-2 -2 -3 -4 -4 -3 -3 -3 -3 -3 -2 -2 -3 -3 -3 -3 -4 -5 -6 -5 -4 -5 -5 -5 -5 -6 -7 -6 -6 -6 -7 -7 -6 -5 -5 -4 -3 -2 -2 -2 -3 -3 -3 -3 -4 -4 -5 -6 -5 -4 -4 -4 -4 -3 -3 -4 -6 -5 -4 -6 -8 -6 -4 -4 -6 -5 -3 -3 -6
-2 -2 -2 -3 -3 -3 -3 -3 -3 -2 -2 -2 -2 -2 -3 -3 -3 -4 -5 -5 -4 -4 -6 -6 -6 -7 -8 -8 -6 -5 -6 -6 -6 -4 -3 -3 -3 -2 -2 -1 -1 -2 -2 -3 -3 -3 -4 -4 -5 -4 -3 -4 -6 -5 -4 -3 -5 -6 -6 -6 -6 -6 -4 -4 -4 -4 -3 -4 -5
-2 -2 -3 -2 -2 -2 -3 -3 -2 -2 -2 -2 -2 -2 -2 -3 -3 -3 -4 -5 -5 -5 -6 -6 -6 -6 -6 -8 -7 -5 -4 -4 -5 -4 -3 -2 -1 -1 -2 -2 -1 -1 -2 -3 -4 -3 -3 -4 -5 -5 -4 -4 -6 -7 -6 -3 -4 -5 -6 -6 -6 -5 -4 -4 -3 -3 -3 -4 -4
-1 -2 -3 -3 -2 -2 -2 -3 -3 -2 -1 -2 -2 -2 -2 -3 -3 -3 -3 -5 -5 -6 -6 -8 -6 -5 -4 -4 -6 -6 -4 -3 -2 -3 -3 -2 -0 0 -1 -3 -2 -2 -1 -2 -4 -4 -3 -3 -5 -6 -7 -6 -6 -6 -5 -4 -4 -4 -5 -5 -5 -5 -4 -3 -3 -2 -2 -3 -4
-2 -2 -3 -3 -3 -2 -2 -3 -2 -2 -1 -2 -2 -2 -2 -3 -3 -3 -4 -6 -7 -6 -6 -7 -7 -6 -4 -1 -2 -4 -6 -5 -2 -1 -1 -3 -2 -1 -1 -2 -3 -3 -3 -3 -4 -5 -4 -4 -4 -6 -7 -8 -6 -5 -4 -3 -3 -4 -4 -4 -4 -4 -4 -3 -2 -2 -2 -2 -3
-3 -3 -3 -3 -3 -2 -2 -2 -2 -2 -1 -2 -2 -2 -2 -4 -4 -4 -4 -6 -8 -8 -6 -4 -4 -5 -5 -4 -1 -1 -2 -5 -4 -2 -1 -2 -4 -3 -2 -2 -3 -4 -4 -5 -6 -6 -6 -5 -4 -4 -5 -7 -7 -6 -4 -3 -3 -3 -3 -3 -3 -4 -4 -3 -2 -2 -2 -2 -2
-3 -3 -3 -3 -3 -2 -1 -1 -1 -1 -1 -2 -2 -2 -3 -4 -5 -6 -6 -6 -7 -8 -8 -5 -3 -2 -3 -5 -4 -2 -0 -2 -4 -4 -2 -2 -4 -4 -4 -3 -3 -4 -6 -6 -6 -6 -5 -5 -4 -4 -4 -5 -6 -6 -4 -4 -3 -3 -3 -3 -3 -3 -3 -2 -2 -2 -2 -2 -2
-3 -3 -2 -2 -2 -2 -1 -1 -1 -1 -2 -2 -3 -4 -4 -4 -6 -7 -7 -6 -4 -5 -6 -7 -4 -2 -1 -2 -4 -3 -2 -1 -3 -4 -4 -2 -3 -4 -5 -5 -5 -5 -6 -7 -7 -6 -5 -4 -4 -4 -4 -5 -5 -5 -4 -4 -4 -3 -2 -2 -2 -2 -2 -1 -1 -1 -1 -2 -2
-3 -3 -2 -1 -1 -1 -1 -1 -1 -2 -2 -2 -3 -4 -5 -5 -5 -6 -6 -6 -4 -3 -3 -4 -4 -3 -2 -1 -2 -3 -3 -2 -3 -4 -4 -3 -2 -3 -5 -6 -6 -6 -6 -5 -6 -6 -4 -3 -4 -4 -4 -5 -5 -4 -4 -3 -3 -3 -3 -2 -2 -2 -1 -0 -0 -0 -1 -1 -2
-3 -3 -3 -2 -1 -1 -1 -2 -2 -2 -3 -4 -4 -5 -6 -6 -5 -5 -4 -4 -3 -2 -2 -3 -3 -3 -4 -3 -2 -3 -3 -3 -2 -3 -4 -4 -3 -3 -4 -5 -7 -7 -6 -4 -4 -4 -4 -4 -4 -4 -4 -4 -5 -5 -4 -3 -3 -3 -3 -2 -2 -2 -1 -0 -0 -0 -1 -1 -1
-3 -3 -2 -2 -1 -1 -1 -2 -2 -3 -4 -5 -5 -5 -6 -6 -5 -4 -3 -3 -2 -1 -1 -2 -3 -4 -4 -4 -4 -4 -4 -3 -1 -1 -2 -4 -5 -5 -4 -3 -6 -6 -6 -2 -2 -3 -3 -3 -4 -4 -5 -5 -5 -4 -4 -4 -4 -3 -3 -2 -1 -1 -1 -0 -1 -1 -1 -1 -1
-3 -2 -2 -1 -1 -1 -2 -3 -3 -4 -5 -5 -5 -5 -5 -5 -4 -3 -2 -1 -1 -1 -1 -2 -3 -4 -4 -5 -4 -4 -4 -3 -2 -1 -1 -2 -4 -5 -5 -3 -3 -5 -5 -2 -1 -2 -3 -3 -3 -3 -4 -5 -5 -4 -4 -4 -4 -4 -3 -2 -0 -0 -0 -0 -1 -1 -1 -1 -0
-3 -2 -1 -0 -1 -1 -2 -4 -4 -5 -5 -5 -5 -5 -4 -4 -3 -1 -0 0 0 -0 -2 -3 -3 -3 -4 -5 -4 -3 -2 -2 -3 -3 -3 -2 -2 -4 -5 -3 -2 -2 -3 -2 -1 -1 -2 -4 -3 -3 -2 -3 -4 -4 -3 -3 -3 -3 -3 -2 -0 0 0 0 0 -0 -0 -1 -0
-1 -1 0 0 -1 -2 -3 -4 -5 -5 -5 -5 -5 -4 -4 -3 -2 -1 0 0 0 -0 -1 -3 -4 -3 -3 -3 -3 -2 -1 -1 -2 -4 -4 -4 -1 -1 -2 -3 -2 -1 -1 -1 -0 -1 -1 -3 -4 -4 -3 -3 -3 -3 -3 -2 -2 -2 -2 -2 -1 -1 -0 1 1 1 1 -0 -0
1 -0 -1 -1 -2 -3 -4 -4 -4 -4 -5 -4 -4 -3 -2 -1 -0 -0 -0 -0 -1 -1 -2 -3 -4 -4 -3 -1 -0 0 0 -1 -1 -3 -4 -4 -2 -0 0 -1 -2 -1 -0 0 -0 -0 -1 -1 -3 -4 -5 -5 -5 -5 -4 -3 -2 -2 -2 -2 -2 -2 -2 -1 1 2 2 1 0
1 -0 -2 -3 -3 -3 -4 -3 -3 -4 -4 -3 -3 -2 -1 0 0 0 -0 -1 -1 -2 -2 -3 -3 -3 -2 -1 0 1 1 -1 -1 -2 -2 -4 -3 -2 0 1 0 -0 -0 1 1 0 -0 -0 -0 -2 -3 -5 -6 -6 -6 -6 -4 -2 -2 -2 -2 -2 -2 -2 0 2 3 2 1
-0 -1 -2 -3 -2 -2 -2 -2 -3 -3 -3 -2 -1 -1 -0 0 0 -0 -1 -2 -2 -2 -3 -2 -1 0 0 -0 -0 -0 0 -1 -1 -1 -1 -2 -3 -3 -2 0 1 1 1 1 1 0 0 0 1 1 -0 -3 -5 -6 -7 -7 -5 -3 -1 -1 -1 -1 -1 -1 -0 1 2 2 2
-2 -3 -3 -2 -2 -2 -2 -1 -2 -2 -2 -0 -0 -0 0 1 0 -0 -2 -3 -3 -3 -3 -3 -1 1 3 3 1 -0 -0 -0 -1 -1 -2 -1 -1 -2 -2 -1 0 1 1 1 0 -0 0 0 1 1 1 -0 -3 -5 -6 -6 -4 -2 -1 -0 0 0 0 -0 -0 0 1 1 1
-3 -3 -3 -2 -1 -1 -1 -1 -1 -1 -1 -0 0 0 -0 -0 -0 -1 -1 -2 -3 -3 -2 -2 -2 -2 -0 1 -0 -1 -1 0 0 -1 -2 -2 -1 -1 -1 -0 0 1 1 2 0 -0 -0 -0 0 0 0 -0 -2 -4 -5 -4 -2 -1 0 1 2 2 1 1 0 0 0 1 1
-2 -3 -3 -2 -2 -1 -1 -1 0 0 -0 -1 -0 -0 -0 -1 -2 -3 -3 -3 -2 -1 1 3 2 -0 -2 -2 -2 -2 -2 -1 1 0 -1 -3 -2 -1 -0 0 1 1 2 2 0 -0 -0 -0 -0 -0 -0 -0 -2 -3 -4 -3 -1 -0 1 2 3 2 2 0 -0 -0 0 0 0
-2 -2 -2 -3 -2 -1 -0 -0 -0 -0 -0 -0 -1 -2 -2 -2 -1 -2 -3 -5 -4 -2 0 3 4 3 1 -0 -0 -1 -1 -2 -0 0 0 -2 -3 -2 -1 1 1 1 1 1 -0 -1 -1 -1 -0 -0 -0 -0 -1 -2 -2 -2 -1 0 1 2 3 2 1 -0 -1 -0 -0 0 -0
-3 -3 -3 -3 -3 -2 -0 1 -1 -1 -2 -1 -1 -1 -2 -4 -2 -0 1 0 -1 -1 -1 -0 1 0 -0 0 0 0 0 0 -1 -1 -0 -1 -3 -3 -1 1 2 2 1 -0 -1 -2 -2 -1 -0 0 0 0 -0 -1 -1 -0 -0 0 1 1 1 1 0 -1 -1 -1 -1 -0 -1
-2 -3 -3 -2 -2 -2 -1 0 -0 -1 -2 -3 -2 -1 -1 -4 -4 -3 -0 2 3 3 2 1 0 -2 -3 -2 -1 -1 -0 2 0 -1 -1 -1 -2 -2 -2 1 2 2 1 -1 -2 -2 -2 -1 -0 0 0 -0 -0 -0 -0 -0 -0 -0 -0 0 0 -0 -1 -1 -2 -2 -2 -2 -2
-2 -3 -3 -2 -1 -2 -2 -1 -1 -2 -2 -3 -3 -2 -1 -1 -3 -3 -3 -1 1 2 3 2 2 1 -1 -3 -2 -3 -3 -1 -0 -0 -2 -2 -2 -2 -1 1 2 1 -0 -2 -3 -2 -1 -0 -0 -0 -0 -0 -1 -0 -0 -0 -1 -1 -1 -0 -1 -1 -1 -2 -2 -2 -2 -2 -2
-3 -3 -4 -3 -1 -1 -2 -3 -2 -2 -2 -3 -3 -4 -3 -1 1 1 1 0 -0 1 1 1 0 1 0 -2 -2 -2 -3 -4 -2 -1 -1 -2 -2 -2 -1 1 2 1 -1 -4 -3 -2 -1 -0 -1 -1 -1 -1 -1 -1 -1 -1 -1 -1 -1 -1 -1 -1 -1 -2 -2 -2 -2 -1 -1
-3 -3 -4 -4 -2 -2 -2 -3 -4 -3 -3 -3 -3 -4 -4 -2 0 2 3 3 1 0 1 3 0 -0 -0 -1 -1 -1 -1 -2 -3 -2 -1 -1 -2 -2 -0 2 2 1 -2 -4 -3 -2 -1 -1 -1 -2 -2 -2 -2 -1 -1 -1 -1 -1 -0 -0 -0 -0 -1 -1 -1 -0 -0 -0 -0
-2 -3 -4 -4 -4 -3 -3 -3 -4 -5 -4 -3 -2 -2 -2 -2 -0 0 1 1 -0 -1 -1 3 2 1 -1 -1 -1 -0 0 -0 -2 -3 -2 -1 -1 -2 -1 1 2 0 -2 -3 -3 -2 -2 -2 -2 -2 -2 -2 -2 -2 -1 -1 -1 -0 -0 -0 -0 -0 0 0 0 1 1 1 1
-2 -3 -3 -4 -5 -5 -4 -3 -4 -6 -6 -5 -2 -0 1 1 1 1 1 0 -1 -3 -3 -0 1 1 -0 -2 -2 -0 1 1 -1 -3 -3 -2 -1 -2 -1 0 1 -0 -2 -3 -2 -2 -2 -2 -2 -3 -3 -2 -2 -1 -1 -1 -1 -0 -0 -0 -0 0 1 1 1 2 2 2 1
-1 -2 -3 -4 -5 -6 -6 -5 -4 -4 -6 -6 -4 -2 0 2 1 1 0 1 -0 -2 -3 -2 -1 -0 -1 -2 -2 -1 1 2 -0 -2 -4 -3 -2 -2 -2 -1 -0 -1 -2 -3 -2 -2 -2 -2 -2 -2 -2 -2 -2 -2 -1 -1 -0 -0 -0 -0 0 1 1 2 2 2 3 3 2
-1 -2 -4 -4 -4 -6 -7 -8 -5 -3 -2 -3 -4 -3 -1 1 0 0 0 -0 -0 -1 -2 -3 -2 -1 -1 -2 -3 -2 -0 2 1 -2 -3 -3 -2 -2 -2 -2 -1 -1 -2 -3 -3 -2 -2 -2 -2 -2 -2 -2 -2 -1 -1 -0 0 1 1 1 1 2 2 3 3 3 4 4 4
-2 -3 -4 -6 -5 -5 -6 -8 -8 -5 -1 1 -0 -1 -0 0 -0 0 1 -0 -1 -1 -2 -4 -2 -1 -1 -2 -3 -3 -1 1 0 -1 -3 -3 -2 -2 -2 -2 -1 -1 -2 -3 -3 -3 -2 -2 -2 -2 -1 -1 -1 -0 0 1 1 1 1 1 1 2 3 4 5 5 5 6 5
Height
5665 5664 5662 5661 5659 5658 5656 5655 5653 5652 5650 5649 5647 5645 5644 5642 5640 5639 5637 5636 5634 5632 5631 5629 5628 5626 5624 5622 5620 5619 5617 5615 5613 5611 5610 5608 5605 5603 5601 5599 5597 5594 5592 5590 5587 5585 5582 5580 5577 5575 5574 5572 5571 5569 5567 5565 5563 5561 5560 5558 5557 5556 5555 5554 5553 5552 5551 5550 5549
5660 5659 5658 5656 5655 5653 5652 5650 5648 5647 5645 5643 5642 5640 5638 5637 5635 5634 5632 5630 5628 5627 5625 5623 5622 5620 5619 5616 5615 5613 5611 5609 5607 5605 5603 5601 5599 5596 5594 5592 5589 5587 5584 5582 5579 5576 5574 5571 5569 5567 5565 5564 5562 5560 5558 5556 5553 5552 5550 5548 5546 5545 5545 5544 5543 5541 5540 5540 5538
5656 5655 5653 5651 5650 5648 5647 5645 5643 5642 5640 5638 5636 5635 5633 5631 5630 5628 5626 5625 5623 5621 5619 5617 5616 5614 5613 5611 5609 5607 5605 5603 5600 5598 5596 5594 5591 5589 5586 5584 5581 5579 5576 5574 5571 5568 5565 5562 5560 5558 5556 5555 5553 5551 5549 5546 5544 5542 5540 5538 5536 5535 5534 5533 5532 5530 5530 5529 5527
5652 5650 5649 5647 5645 5643 5642 5640 5639 5637 5635 5633 5631 5629 5627 5625 5624 5622 5620 5619 5617 5615 5613 5611 5610 5608 5606 5604 5602 5600 5598 5595 5593 5591 5589 5586 5584 5581 5579 5576 5573 5570 5568 5565 5562 5559 5556 5553 5551 5549 5547 5545 5543 5541 5539 5536 5534 5532 5530 5527 5525 5524 5523 5522 5520 5519 5518 5517 5516
5648 5646 5644 5642 5640 5638 5637 5635 5634 5632 5630 5628 5626 5624 5622 5620 5618 5616 5615 5613 5611 5609 5607 5605 5603 5601 5599 5597 5595 5593 5591 5588 5586 5583 5581 5578 5576 5573 5571 5568 5565 5562 5559 5556 5553 5550 5547 5544 5541 5539 5537 5535 5533 5531 5529 5526 5524 5521 5519 5516 5515 5513 5511 5510 5508 5507 5506 5505 5504
5643 5641 5639 5637 5635 5634 5632 5630 5628 5627 5625 5623 5621 5619 5616 5614 5612 5610 5609 5607 5605 5603 5601 5599 5596 5594 5592 5590 5588 5586 5583 5581 5578 5576 5573 5570 5568 5565 5563 5560 5557 5554 5550 5547 5544 5541 5538 5535 5532 5530 5527 5525 5523 5521 5518 5515 5513 5510 5508 5505 5503 5501 5499 5498 5495 5494 5492 5492 5490
5638 5636 5634 5632 5630 5628 5627 5625 5623 5621 5619 5617 5615 5613 5611 5609 5606 5605 5602 5600 5599 5596 5594 5592 5590 5587 5585 5583 5581 5579 5576 5574 5571 5568 5565 5563 5560 5557 5554 5551 5548 5545 5541 5538 5535 5531 5528 5525 5522 5520 5517 5514 5512 5510 5507 5504 5502 5499 5496 5494 5491 5489 5486 5485 5482 5480 5478 5478 5476
5634 5631 5629 5627 5625 5623 5621 5620 5618 5616 5614 5612 5610 5608 5605 5603 5601 5598 5596 5594 5592 5590 5588 5585 5583 5580 5578 5576 5574 5571 5569 5566 5563 5560 5558 5555 5552 5549 5545 5542 5539 5536 5532 5529 5525 5521 5518 5515 5512 5509 5506 5503 5501 5498 5495 5492 5490 5487 5484 5481 5478 5475 5473 5471 5468 5466 5464 5463 5461
5629 5626 5625 5622 5620 5619 5617 5615 5613 5611 5609 5606 5604 5602 5600 5597 5595 5592 5590 5588 5586 5583 5581 5579 5576 5574 5571 5569 5566 5564 5561 5558 5555 5552 5549 5546 5543 5540 5536 5533 5530 5526 5523 5519 5515 5511 5508 5504 5501 5498 5495 5492 5489 5486 5483 5479 5476 5474 5470 5467 5465 5462 5459 5456 5454 5452 5450 5447 5446
5624 5622 5620 5618 5615 5613 5611 5610 5608 5605 5604 5601 5599 5596 5594 5591 5589 5586 5584 5582 5580 5577 5575 5572 5570 5567 5564 5561 5559 5556 5552 5549 5546 5543 5540 5537 5534 5530 5527 5523 5520 5516 5513 5509 5505 5501 5497 5494 5490 5487 5484 5480 5476 5473 5470 5466 5463 5459 5456 5453 5450 5447 5445 5442 5439 5436 5434 5432 5430
5619 5617 5615 5613 5611 5609 5607 5605 5603 5601 5599 5596 5594 5591 5589 5586 5583 5580 5578 5575 5573 5571 5568 5565 5562 5560 5556 5554 5550 5547 5544 5540 5537 5534 5531 5528 5524 5521 5517 5513 5510 5506 5502 5498 5494 5490 5486 5482 5479 5475 5471 5468 5464 5460 5456 5452 5448 5444 5441 5437 5434 5431 5429 5426 5423 5420 5418 5416 5414
5615 5612 5610 5608 5606 5604 5602 5600 5598 5596 5594 5591 5589 5586 5583 5580 5577 5575 5572 5569 5567 5564 5561 5559 5555 5552 5549 5545 5542 5538 5535 5531 5528 5524 5521 5518 5514 5511 5507 5503 5499 5495 5491 5487 5483 5479 5474 5470 5466 5462 5459 5455 5450 5445 5441 5438 5433 5429 5425 5421 5418 5415 5413 5410 5408 5405 5403 5401 5399
5610 5608 5606 5604 5602 5600 5598 5596 5593 5591 5589 5586 5583 5580 5577 5574 5571 5568 5565 5563 5560 5557 5554 5551 5548 5544 5541 5537 5533 5529 5525 5521 5518 5514 5511 5507 5504 5500 5496 5493 5489 5485 5480 5476 5471 5467 5462 5458 5453 5449 5445 5440 5436 5431 5426 5422 5417 5413 5409 5406 5403 5400 5398 5396 5394 5392 5390 5387 5386
5606 5604 5602 5600 5597 5595 5593 5591 5588 5586 5583 5580 5577 5574 5571 5568 5565 5562 5559 5555 5553 5550 5547 5543 5540 5536 5532 5528 5524 5520 5515 5511 5507 5504 5500 5497 5493 5490 5486 5482 5478 5473 5469 5464 5459 5454 5450 5445 5440 5435 5430 5425 5421 5416 5411 5407 5403 5399 5395 5392 5389 5387 5385 5383 5381 5380 5378 5376 5374
5601 5599 5597 5595 5593 5590 5588 5586 5583 5580 5578 5575 5571 5568 5565 5562 5558 5555 5552 5548 5545 5542 5539 5535 5531 5527 5523 5519 5514 5510 5506 5501 5497 5494 5490 5486 5483 5479 5475 5470 5466 5461 5456 5451 5446 5441 5436 5431 5426 5420 5415 5410 5405 5401 5397 5394 5390 5386 5382 5380 5377 5375 5373 5371 5370 5369 5367 5365 5364
5597 5595 5592 5590 5588 5585 5583 5580 5577 5575 5572 5569 5565 5562 5559 5555 5551 5548 5545 5541 5537 5533 5530 5526 5522 5518 5514 5509 5504 5500 5496 5492 5487 5484 5480 5476 5472 5468 5463 5458 5454 5449 5444 5438 5433 5428 5423 5417 5412 5406 5401 5396 5392 5388 5385 5381 5378 5375 5372 5369 5367 5365 5363 5361 5360 5359 5357 5356 5355
5593 5590 5588 5585 5583 5580 5578 5575 5572 5569 5565 5562 5559 5555 5551 5548 5544 5540 5537 5533 5529 5525 5520 5516 5512 5508 5504 5500 5495 5490 5486 5482 5478 5473 5469 5465 5461 5456 5451 5446 5441 5436 5430 5425 5419 5414 5409 5404 5398 5393 5388 5384 5380 5376 5373 5370 5368 5365 5362 5360 5358 5356 5354 5353 5351 5350 5348 5347 5346
5588 5585 5583 5580 5578 5575 5572 5569 5566 5562 5559 5555 5552 5548 5544 5540 5537 5533 5529 5525 5520 5516 5512 5507 5503 5499 5495 5490 5486 5481 5476 5472 5468 5463 5459 5454 5449 5444 5439 5434 5428 5423 5417 5411 5406 5401 5396 5391 5386 5381 5377 5373 5369 5366 5363 5360 5358 5356 5354 5351 5350 5348 5346 5345 5343 5342 5340 5339 5338
5583 5581 5578 5575 5572 5570 5566 5563 5559 5556 5552 5548 5545 5540 5537 5533 5529 5525 5521 5516 5511 5507 5502 5498 5494 5490 5485 5481 5477 5472 5467 5462 5458 5453 5448 5443 5438 5432 5427 5422 5416 5410 5405 5399 5394 5388 5384 5379 5375 5371 5367 5363 5360 5357 5355 5352 5350 5348 5345 5344 5342 5340 5339 5337 5336 5334 5333 5331 5330
5578 5575 5573 5570 5567 5563 5560 5556 5553 5549 5545 5541 5537 5533 5530 5525 5521 5517 5513 5508 5503 5498 5493 5489 5485 5481 5476 5472 5467 5463 5458 5453 5448 5443 5437 5432 5426 5420 5415 5410 5404 5398 5393 5387 5382 5378 5373 5369 5365 5361 5358 5355 5351 5349 5347 5344 5342 5340 5338 5337 5335 5333 5332 5330 5329 5327 5326 5325 5324
5573 5570 5567 5564 5560 5557 5553 5550 5545 5542 5538 5534 5530 5526 5522 5518 5514 5509 5505 5500 5495 5490 5485 5480 5476 5472 5467 5463 5458 5454 5449 5444 5438 5433 5427 5421 5415 5410 5404 5398 5392 5387 5382 5377 5373 5368 5364 5360 5356 5353 5350 5347 5344 5341 5339 5337 5335 5333 5332 5330 5328 5327 5325 5324 5323 5321 5320 5319 5317
5567 5564 5561 5558 5554 5550 5546 5543 5539 5535 5531 5527 5523 5519 5515 5511 5506 5502 5497 5492 5487 5482 5477 5473 5468 5463 5458 5454 5449 5444 5439 5434 5428 5422 5416 5411 5405 5399 5393 5387 5382 5377 5372 5368 5364 5360 5356 5352 5349 5346 5343 5340 5337 5335 5333 5331 5329 5327 5325 5324 5323 5321 5320 5318 5317 5315 5314 5313 5311
5561 5558 5555 5551 5548 5544 5540 5536 5532 5528 5524 5520 5516 5512 5508 5504 5499 5494 5490 5485 5480 5475 5470 5465 5460 5455 5450 5445 5440 5435 5429 5423 5418 5412 5406 5400 5395 5389 5384 5378 5373 5368 5364 5360 5356 5353 5349 5345 5342 5339 5336 5334 5331 5329 5327 5325 5323 5321 5319 5318 5317 5315 5314 5312 5311 5310 5308 5307 5305
5555 5552 5549 5545 5541 5537 5533 5529 5525 5521 5518 5514 5510 5505 5501 5496 5492 5487 5482 5477 5472 5467 5462 5457 5451 5446 5441 5436 5431 5425 5420 5414 5408 5402 5396 5390 5385 5380 5375 5370 5365 5360 5356 5353 5349 5346 5342 5339 5335 5332 5330 5327 5325 5323 5321 5319 5317 5315 5313 5312 5310 5309 5308 5307 5306 5305 5303 5301 5300
5550 5546 5543 5539 5535 5530 5526 5522 5519 5515 5511 5507 5503 5499 5494 5490 5485 5480 5475 5470 5465 5460 5455 5449 5444 5439 5433 5428 5422 5416 5410 5404 5398 5392 5386 5381 5376 5371 5366 5362 5358 5354 5350 5346 5343 5340 5336 5333 5330 5326 5323 5320 5319 5317 5315 5313 5311 5309 5308 5306 5305 5303 5302 5301 5300 5299 5297 5295 5294
5544 5540 5536 5532 5528 5524 5520 5516 5512 5508 5504 5500 5496 5492 5487 5483 5478 5473 5468 5463 5458 5452 5447 5442 5436 5431 5425 5419 5414 5408 5401 5395 5389 5383 5377 5372 5368 5363 5359 5355 5351 5347 5344 5341 5338 5335 5331 5328 5325 5321 5318 5315 5312 5310 5308 5306 5305 5304 5302 5301 5300 5298 5296 5295 5294 5293 5292 5290 5289
5538 5534 5530 5526 5522 5518 5514 5510 5506 5502 5498 5494 5490 5485 5480 5475 5470 5465 5460 5455 5450 5445 5439 5434 5428 5423 5417 5411 5405 5399 5393 5387 5380 5374 5369 5364 5360 5356 5352 5349 5345 5342 5338 5335 5332 5329 5326 5323 5320 5317 5313 5310 5307 5305 5303 5301 5300 5299 5298 5296 5294 5293 5291 5290 5288 5287 5286 5285 5284
5531 5527 5523 5520 5516 5512 5508 5504 5500 5495 5491 5487 5483 5478 5474 5469 5464 5458 5453 5447 5442 5437 5432 5426 5420 5415 5409 5403 5397 5391 5385 5379 5373 5367 5362 5357 5353 5350 5346 5343 5340 5336 5333 5330 5327 5324 5321 5318 5315 5312 5309 5306 5303 5300 5298 5297 5295 5294 5292 5291 5289 5288 5286 5285 5283 5282 5281 5280 5279
5525 5521 5517 5514 5510 5506 5502 5498 5494 5490 5485 5481 5476 5471 5467 5461 5456 5451 5445 5440 5435 5430 5424 5418 5412 5406 5400 5394 5388 5382 5376 5371 5365 5360 5355 5351 5347 5344 5341 5338 5335 5331 5329 5326 5322 5319 5316 5313 5310 5308 5305 5302 5299 5296 5294 5292 5291 5289 5288 5286 5285 5283 5281 5280 5279 5278 5277 5276 5275
5518 5515 5511 5508 5504 5500 5496 5492 5488 5483 5479 5474 5470 5465 5460 5455 5449 5444 5439 5433 5428 5422 5416 5410 5405 5399 5392 5386 5380 5374 5369 5363 5358 5354 5350 5345 5342 5339 5336 5333 5330 5327 5324 5321 5318 5315 5312 5309 5306 5304 5301 5298 5295 5292 5290 5289 5287 5286 5284 5283 5281 5280 5278 5276 5275 5274 5274 5273 5272
5512 5509 5505 5502 5498 5494 5490 5486 5481 5477 5472 5468 5463 5458 5453 5448 5442 5437 5431 5426 5420 5415 5409 5403 5397 5391 5385 5379 5373 5367 5362 5357 5352 5348 5344 5341 5337 5334 5331 5329 5325 5323 5320 5317 5314 5310 5308 5305 5302 5300 5297 5295 5292 5289 5287 5285 5284 5283 5281 5280 5278 5277 5275 5274 5273 5272 5271 5270 5270
5506 5503 5499 5495 5492 5488 5484 5480 5475 5471 5466 5461 5456 5451 5446 5441 5436 5430 5425 5419 5413 5407 5401 5395 5389 5383 5377 5371 5366 5361 5356 5352 5348 5343 5340 5336 5333 5330 5327 5325 5322 5319 5315 5313 5310 5307 5304 5302 5299 5297 5295 5292 5290 5287 5285 5284 5282 5280 5279 5277 5276 5275 5274 5272 5271 5270 5270 5269 5268
5500 5496 5493 5489 5486 5482 5477 5473 5469 5464 5460 5455 5450 5445 5440 5435 5429 5424 5418 5412 5406 5400 5394 5388 5382 5376 5370 5365 5360 5355 5350 5346 5343 5339 5335 5332 5329 5326 5324 5321 5318 5315 5312 5309 5306 5304 5301 5299 5297 5295 5292 5290 5288 5286 5284 5282 5281 5279 5278 5276 5275 5274 5273 5272 5271 5270 5269 5269 5268
5494 5490 5487 5483 5479 5475 5471 5467 5462 5458 5453 5449 5444 5439 5434 5428 5423 5417 5412 5405 5399 5393 5387 5381 5375 5369 5364 5359 5354 5350 5346 5342 5338 5335 5332 5328 5325 5323 5320 5318 5315 5312 5309 5306 5304 5302 5300 5297 5295 5293 5291 5289 5287 5285 5284 5282 5280 5279 5278 5277 5275 5274 5273 5272 5271 5270 5270 5269 5269
5488 5484 5480 5477 5473 5469 5465 5461 5456 5452 5447 5442 5438 5433 5427 5422 5416 5411 5405 5399 5393 5386 5380 5375 5369 5363 5357 5353 5349 5345 5341 5338 5334 5331 5328 5325 5322 5320 5318 5315 5312 5310 5307 5304 5302 5300 5298 5296 5294 5292 5290 5289 5287 5285 5284 5282 5281 5280 5278 5277 5276 5275 5274 5273 5272 5271 5270 5270 5270
5482 5478 5474 5470 5467 5463 5459 5455 5450 5446 5441 5436 5431 5426 5421 5416 5410 5404 5398 5392 5386 5380 5375 5369 5364 5358 5353 5348 5344 5341 5337 5334 5331 5328 5325 5323 5320 5317 5315 5313 5310 5308 5305 5303 5301 5299 5297 5295 5294 5292 5290 5289 5287 5285 5284 5283 5281 5280 5279 5278 5276 5275 5274 5273 5272 5271 5270 5270 5270
5475 5472 5468 5464 5460 5457 5453 5449 5444 5440 5435 5430 5425 5420 5415 5410 5404 5398 5391 5385 5379 5374 5368 5363 5359 5354 5349 5345 5341 5338 5334 5331 5328 5325 5323 5320 5318 5315 5313 5311 5309 5307 5305 5302 5300 5299 5297 5295 5294 5292 5290 5288 5287 5285 5284 5283 5281 5280 5279 5277 5276 5275 5274 5273 5272 5271 5270 5270 5269
5470 5466 5462 5458 5454 5450 5447 5442 5438 5433 5429 5424 5419 5413 5408 5403 5397 5391 5385 5378 5373 5367 5363 5358 5354 5349 5345 5341 5338 5335 5332 5329 5325 5323 5320 5318 5316 5314 5312 5310 5308 5306 5304 5302 5300 5299 5297 5295 5293 5291 5290 5288 5286 5285 5284 5282 5281 5280 5278 5277 5276 5275 5274 5273 5272 5271 5270 5270 5269
5464 5460 5456 5452 5448 5445 5441 5436 5432 5427 5422 5417 5412 5407 5401 5396 5390 5384 5378 5372 5366 5362 5357 5353 5349 5345 5341 5338 5335 5332 5330 5327 5324 5320 5318 5316 5314 5313 5311 5309 5307 5305 5304 5302 5300 5298 5296 5295 5293 5291 5290 5288 5286 5285 5284 5282 5281 5280 5278 5277 5276 5275 5274 5274 5273 5272 5271 5271 5270
5459 5455 5450 5446 5442 5439 5435 5430 5426 5421 5416 5411 5406 5401 5395 5389 5384 5378 5372 5366 5361 5356 5352 5348 5345 5341 5338 5335 5332 5330 5327 5325 5322 5319 5317 5315 5313 5312 5310 5309 5307 5305 5303 5301 5300 5298 5296 5295 5293 5291 5290 5288 5287 5285 5284 5283 5281 5280 5279 5278 5277 5276 5275 5274 5274 5273 5272 5271 5271
5453 5449 5445 5441 5437 5433 5429 5425 5420 5415 5410 5405 5400 5394 5388 5383 5377 5372 5367 5362 5356 5352 5348 5344 5341 5338 5335 5332 5330 5327 5325 5323 5320 5318 5316 5314 5313 5311 5310 5308 5306 5305 5303 5301 5300 5298 5296 5295 5293 5292 5290 5289 5287 5286 5285 5284 5282 5281 5280 5279 5278 5276 5275 5275 5274 5273 5273 5272 5271